Flag for India Weather past 2 weeks in Chandigarh, Chandigarh, India

Now
82 °F

Thundershowers. Passing clouds.


Feels Like: 89 °F
Forecast: 76 / 98 °F
Wind: 2 mph from North

Location: Amritsar Airport

Current Time: Aug 30, 2015 at 10:31:09 PM

Latest Report: Aug 30, 2015 at 9:30 PM


Visibility: 2 mi

Pressure: 29.59 "Hg

Humidity: 79%

Dew point: 75 °F

Location of ChandigarhLocation

Historic Weather in Chandigarh — Graph

°F

Chandigarh temperature yesterday

Maximum temperature yesterday: 97 °F (at 1:30 PM)
Minimum temperature yesterday: 79 °F (at 6:30 AM)
Average temperature yesterday: 87 °F

Past Weeks' High & Low Weather Summary

 TemperatureHumidityPressure
High97 °F (Aug 27, 1:00 PM)100% (Aug 15, 10:00 PM)29.71 "Hg (Aug 15, 10:00 PM)
Low75 °F (Aug 21, 5:00 PM)44% (Aug 29, 1:30 PM)29.53 "Hg (Aug 20, 5:00 PM)
Average86 °F82%29.61 "Hg
* Reported Aug 15 9:00 PM — Aug 30 9:00 PM, Chandigarh, Weather by CustomWeather, © 2015

Note: Actual official high and low records may vary slightly from our data, if they occured in-between our weather recording intervals... More about our weather records

Advertising

Chandigarh weather history for previous 24 hours

 ConditionsComfort  
Time TempWeatherWind HumidityBarometerVisibility
9:00 PM
Sun, Aug 30
84 °FThundershowers. Passing clouds.7 mph70%29.59 "Hg2 mi
8:30 PM84 °FThundershowers. Passing clouds.9 mph70%29.59 "Hg2 mi
8:00 PM88 °FFog.10 mph70%29.59 "Hg2 mi
7:30 PM90 °FPassing clouds.2 mph75%29.56 "Hg2 mi
7:00 PM91 °FScattered clouds.5 mph71%29.56 "Hg3 mi
6:00 PM93 °FScattered clouds.2 mph67%29.53 "Hg3 mi
5:30 PM93 °FScattered clouds.6 mph67%29.53 "Hg3 mi
5:00 PM93 °FScattered clouds.5 mph63%29.53 "Hg3 mi
4:30 PM95 °FScattered clouds.3 mph63%29.56 "Hg3 mi
4:00 PM95 °FScattered clouds.5 mph60%29.56 "Hg3 mi
3:30 PM95 °FScattered clouds.6 mph60%29.56 "Hg3 mi
3:00 PM95 °FScattered clouds.2 mph60%29.56 "Hg3 mi
2:30 PM97 °FScattered clouds.3 mph56%29.59 "Hg3 mi
2:00 PM95 °FScattered clouds.5 mph56%29.62 "Hg3 mi
1:30 PM97 °FScattered clouds.5 mph53%29.62 "Hg3 mi
1:00 PM97 °FScattered clouds.3 mph44%29.62 "Hg3 mi
12:30 PM95 °FScattered clouds.2 mph56%29.62 "Hg3 mi
12:00 PM95 °FScattered clouds.2 mph60%29.65 "Hg3 mi
11:00 AM95 °FScattered clouds.No wind60%29.65 "Hg2 mi
10:30 AM93 °FScattered clouds.No wind59%29.65 "Hg2 mi
10:00 AM91 °FHaze.No wind67%29.65 "Hg2 mi
9:00 AM90 °FFog.No wind75%29.65 "Hg2 mi
8:30 AM88 °FFog.No wind79%29.65 "Hg2 mi
8:00 AM88 °FFog.No wind79%29.65 "Hg1 mi
7:30 AM84 °FFog.No wind89%29.65 "Hg1 mi
7:00 AM82 °FFog.No wind94%29.62 "Hg1 mi
6:30 AM82 °FFog.No wind94%29.62 "Hg1 mi
6:00 AM82 °FFog.No wind94%29.62 "Hg1 mi
5:30 AM84 °FFog.No wind84%29.59 "Hg1 mi
5:00 AM84 °FFog.No wind84%29.59 "Hg1 mi
4:30 AM84 °FFog.No wind84%29.59 "Hg1 mi
4:00 AM82 °FFog.No wind89%29.59 "Hg1 mi
3:30 AM84 °FFog.No wind84%29.59 "Hg1 mi
3:00 AM84 °FFog.No wind84%29.59 "Hg1 mi
2:30 AM84 °FFog.No wind84%29.59 "Hg1 mi
2:00 AM84 °FFog.No wind84%29.59 "Hg2 mi
1:30 AM84 °FFog.No wind84%29.59 "Hg2 mi
12:30 AM84 °FFog.No wind84%29.62 "Hg2 mi
12:00 AM84 °FFog.No wind89%29.59 "Hg2 mi
11:30 PM
Sat, Aug 29
84 °FFog.No wind89%29.62 "Hg2 mi
11:00 PM84 °FFog.No wind89%29.59 "Hg2 mi
10:30 PM86 °FFog.No wind84%29.59 "Hg2 mi
10:00 PM86 °FFog.No wind79%29.59 "Hg2 mi
Weather by CustomWeather, © 2015

See weather overviewHow to use our weather pages